Weather History for Lamar, CO

Change the Weather History Date:

Saturday, December 15, 2012

  Actual Average Record
Temperature  
Mean Temperature 2 °C -2 °C  
Max Temperature 12 °C 7 °C 20 °C (2002)
Min Temperature -8 °C -10 °C -25 °C (1926)
Degree Days  
Heating Degree Days 29 36  
Month to date heating degree days 414 509  
Since 1 July heating degree days 1493 1725  
Cooling Degree Days 0 0  
Month to date cooling degree days 0 0  
Year to date cooling degree days 1626 1121  
Moisture  
Dew Point -3 °C    
Average Humidity 65    
Maximum Humidity 92    
Minimum Humidity 38    
Precipitation  
Precipitation 0.00 mm 0.25 mm 0.41 mm (1988)
Month to date precipitation 0.05 0.19  
Year to date precipitation 6.11 14.99  
Sea Level Pressure  
Sea Level Pressure 1006 hPa    
Wind  
Wind Speed 13 km/h (WSW)    
Max Wind Speed 35 km/h    
Max Gust Speed 47 km/h    
Visibility 16 kilometers    
Events      
T = Trace of Precipitation, MM = Missing Value Source: NWS Daily Summary

Daily Weather History Graph

Daily Weather History Graph

Search for Another Location

Airport:

Trip Planner

Search our weather history database for the weather conditions in past years. The results will help you decide how hot, cold, wet, or windy it might be!

Date:

Astronomy

Dec. 15, 2012 Rise Set
Actual Time 7:00 AM MST 4:32 PM MST
Civil Twilight 6:30 AM MST 5:01 PM MST
Nautical Twilight 5:57 AM MST 5:34 PM MST
Astronomical Twilight 5:25 AM MST 6:06 PM MST
Moon 8:56 AM MST (12/15) 7:36 PM MST (12/15)
Length of Visible Light 10h 31m
Length of Day
9h 32m
Waxing Crescent, 9% of the Moon is Illuminated
Dec 15
Waxing Crescent
Dec 19
First Quarter
Dec 28
Full
Jan 4
Last Quarter
Jan 11
New

Hourly Weather History & Observations

Time (MST) Temp. Windchill Dew Point Humidity Pressure Visibility Wind Dir Wind Speed Gust Speed Precip Events Conditions
12:53 AM 1.7 °C -4.4 °C 0.0 °C 89% 1001.4 hPa 16.1 km West 31.5 km/h / 8.7 m/s - N/A   Clear
1:53 AM 2.2 °C -3.5 °C -0.6 °C 82% 1002.7 hPa 16.1 km West 29.6 km/h / 8.2 m/s - N/A   Clear
2:53 AM 0.0 °C -4.7 °C -1.7 °C 88% 1003.0 hPa 16.1 km West 16.7 km/h / 4.6 m/s - N/A   Clear
3:53 AM 0.6 °C -4.5 °C -2.2 °C 82% 1004.3 hPa 16.1 km WSW 20.4 km/h / 5.7 m/s - N/A   Clear
4:53 AM -0.6 °C -5.4 °C -3.3 °C 82% 1004.6 hPa 16.1 km West 16.7 km/h / 4.6 m/s - N/A   Clear
5:53 AM -2.2 °C - -4.4 °C 85% 1006.2 hPa 16.1 km Calm Calm - N/A   Clear
6:53 AM -2.2 °C -7.4 °C -5.0 °C 81% 1007.0 hPa 16.1 km SW 16.7 km/h / 4.6 m/s - N/A   Clear
7:53 AM -0.6 °C -4.3 °C -4.4 °C 76% 1007.2 hPa 16.1 km SW 11.1 km/h / 3.1 m/s - N/A   Clear
8:53 AM 2.8 °C 0.2 °C -2.2 °C 70% 1006.3 hPa 16.1 km SW 9.3 km/h / 2.6 m/s - N/A   Clear
9:53 AM 7.2 °C 4.0 °C -2.8 °C 49% 1006.3 hPa 16.1 km West 18.5 km/h / 5.1 m/s - N/A   Clear
10:53 AM 6.1 °C 2.2 °C -2.2 °C 56% 1006.8 hPa 16.1 km West 22.2 km/h / 6.2 m/s - N/A   Clear
11:53 AM 6.7 °C 4.9 °C -0.6 °C 60% 1006.6 hPa 16.1 km WNW 9.3 km/h / 2.6 m/s - N/A   Overcast
12:53 PM 7.8 °C 5.8 °C -1.1 °C 54% 1006.1 hPa 16.1 km WNW 11.1 km/h / 3.1 m/s - N/A   Overcast
1:53 PM 9.4 °C - -0.6 °C 50% 1005.3 hPa 16.1 km NW 25.9 km/h / 7.2 m/s 46.3 km/h / 12.9 m/s N/A   Clear
2:53 PM 11.7 °C - -1.1 °C 41% 1004.8 hPa 16.1 km WNW 5.6 km/h / 1.5 m/s - N/A   Clear
3:53 PM 11.1 °C - -2.8 °C 38% 1004.3 hPa 16.1 km North - - N/A   Scattered Clouds
4:53 PM 7.8 °C 7.1 °C -2.8 °C 47% 1004.8 hPa 16.1 km East 5.6 km/h / 1.5 m/s - N/A   Clear
5:53 PM 1.7 °C -1.5 °C -2.8 °C 72% 1006.2 hPa 16.1 km SE 11.1 km/h / 3.1 m/s - N/A   Clear
6:53 PM -2.8 °C -7.4 °C -4.4 °C 89% 1007.0 hPa 16.1 km SSW 13.0 km/h / 3.6 m/s - N/A   Clear
7:53 PM -3.3 °C -7.0 °C -5.0 °C 88% 1007.1 hPa 16.1 km SSW 9.3 km/h / 2.6 m/s - N/A   Clear
8:53 PM -3.3 °C - -5.6 °C 84% 1006.4 hPa 16.1 km Calm Calm - N/A   Clear
9:53 PM -3.9 °C - -5.6 °C 88% 1006.4 hPa 16.1 km Calm Calm - N/A   Clear
10:53 PM -5.6 °C - -7.2 °C 89% 1006.1 hPa 16.1 km Calm Calm - N/A   Clear
11:53 PM -6.1 °C -8.8 °C -7.2 °C 92% 1006.2 hPa 16.1 km NE 5.6 km/h / 1.5 m/s - N/A   Clear